Tracking 30701 objects as of 14-Jun-2025
HD Live streaming from Space Station
objects crossing your sky now

NOAA 16 DEB

Track NOAA 16 DEB now!
10-day predictions


NORAD ID: 42427
Int'l Code: 2000-055TX
Perigee: 636.7 km
Apogee: 689.8 km
Inclination: 98.9 °
Period: 97.9 minutes
Semi major axis: 7034 km
RCS: Unknown
Launch date: September 21, 2000
Source: United States (US)
Launch site: AIR FORCE WESTERN TEST RANGE (AFWTR)

Note: This is SATELLITE DEBRIS
Your satellite tracking list
Your tracking list is empty




NASA's NSSDC Master Catalog

Two Line Element Set (TLE):
1 42427U 00055TX  25163.36855823  .00012884  00000-0  20575-2 0  9990
2 42427  98.9052  32.6540 0037763 283.3909  76.3087 14.71543941463186
Source of the keplerian elements: AFSPC